Tracking 19572 objects as of 24-Feb-2019
HD Live streaming from Space Station
objects crossing your sky now

OPS 6026 (DMSP 4A F1)

Track OPS 6026 (DMSP 4A F1) now!
10-day predictions
OPS 6026 (DMSP 4A F1) is classified as:


NORAD ID: 2418
Int'l Code: 1966-082A
Perigee: 675.3 km
Apogee: 844.7 km
Inclination: 98.2 °
Period: 99.9 minutes
Semi major axis: 7130 km
RCS: 0.634 m2 (medium)
Launch date: September 16, 1966
Source: United States (US)
Launch site: AIR FORCE WESTERN TEST RANGE (AFWTR)
aabbcc
Your satellite tracking list
Your tracking list is empty




NASA's NSSDC Master Catalog

Two Line Element Set (TLE):
1  2418U 66082A   19054.60818948 -.00000007 +00000-0 +10995-4 0  9996
2  2418 098.2263 265.4091 0118779 196.1550 163.5839 14.41709786727316
Source of the keplerian elements: AFSPC